Location: Quebec
(46.8000°N, 71.2500°W)
Time: 04:40:07
(UTC-05:00)

Envisat - Pass Details

Date: 14 October 2017
Orbit: 764 x 766 km, 98.2° (Epoch: 10 December)

Event Time Altitude Azimuth Distance (km) Brightness Sun altitude
Exits shadow 18:39:44 - 84° (E) 2,362 4.8 -7.7°
Reaches altitude 10° 18:40:02 10° 81° (E) 2,309 4.8 -7.7°
Maximum altitude 18:42:15 13° 55° (NE) 2,111 4.8 -8.1°
Drops below altitude 10° 18:44:28 10° 29° (NNE) 2,316 5.2 -8.5°
Sets 18:48:03 0° 3° (N) 3,248 6.2 -9.1°
